| time (UTC) | temp F | wind direction | speed knots | gust knots | rain 1hr in | rain 24hr in | rain mn in | humidity % | barometer mb |
| 20260905230506 | 94 | 17 | 1.7 | 2.6 | 0.00 | 0.00 | 0.00 | 62 | 1010.8 |
| 20260905230005 | 95 | 119 | 0.0 | 1.7 | 0.00 | 0.00 | 0.00 | 62 | 1010.8 |
| 20260905225505 | 95 | 119 | 0.0 | 1.7 | 0.00 | 0.00 | 0.00 | 57 | 1010.8 |
| 20260905225006 | 95 | 119 | 0.0 | 0.0 | 0.00 | 0.00 | 0.00 | 56 | 1010.7 |
| 20260905224505 | 95 | 119 | 0.0 | 0.9 | 0.00 | 0.00 | 0.00 | 54 | 1010.5 |
| 20260905224005 | 95 | 119 | 0.0 | 1.7 | 0.00 | 0.00 | 0.00 | 52 | 1010.5 |
| 20260905223505 | 95 | 119 | 0.9 | 2.6 | 0.00 | 0.00 | 0.00 | 51 | 1010.5 |
| 20260905222505 | 96 | 252 | 0.0 | 0.9 | 0.00 | 0.00 | 0.00 | 49 | 1010.8 |
| 20260905222006 | 96 | 252 | 0.0 | 0.9 | 0.00 | 0.00 | 0.00 | 49 | 1010.8 |
| 20260905221506 | 96 | 252 | 0.0 | 0.9 | 0.00 | 0.00 | 0.00 | 50 | 1010.8 |
| 20260905220505 | 96 | 252 | 0.0 | 0.9 | 0.00 | 0.00 | 0.00 | 47 | 1010.8 |
| 20260905220005 | 96 | 252 | 0.9 | 0.9 | 0.00 | 0.00 | 0.00 | 46 | 1010.4 |
| 20260905215006 | 97 | 107 | 0.0 | 0.9 | 0.00 | 0.00 | 0.00 | 46 | 1010.4 |
| 20260905214505 | 97 | 107 | 0.0 | 1.7 | 0.00 | 0.00 | 0.00 | 46 | 1010.4 |
| 20260905214006 | 97 | 130 | 0.0 | 1.7 | 0.00 | 0.00 | 0.00 | 45 | 1010.4 |
| 20260905213006 | 97 | 219 | 0.9 | 1.7 | 0.00 | 0.00 | 0.00 | 45 | 1010.6 |
| 20260905212506 | 97 | 137 | 0.9 | 1.7 | 0.00 | 0.00 | 0.00 | 46 | 1010.6 |
| 20260905211505 | 97 | 284 | 0.9 | 5.2 | 0.00 | 0.00 | 0.00 | 45 | 1010.9 |
| 20260905211005 | 98 | 77 | 0.9 | 5.2 | 0.00 | 0.00 | 0.00 | 45 | 1010.9 |
| 20260905210505 | 98 | 313 | 0.9 | 1.7 | 0.00 | 0.00 | 0.00 | 45 | 1010.9 |
| 20260905210005 | 98 | 332 | 0.9 | 2.6 | 0.00 | 0.00 | 0.00 | 45 | 1011.1 |
| 20260905205506 | 98 | 96 | 0.9 | 2.6 | 0.00 | 0.00 | 0.00 | 46 | 1011.1 |
| 20260905204505 | 97 | 296 | 0.9 | 1.7 | 0.00 | 0.00 | 0.00 | 46 | 1011.1 |
| 20260905204005 | 97 | 94 | 1.7 | 5.2 | 0.00 | 0.00 | 0.00 | 45 | 1011.3 |
| 20260905203005 | 97 | 121 | 0.9 | 4.3 | 0.00 | 0.00 | 0.00 | 44 | 1011.5 |
| 20260905202506 | 98 | 153 | 0.9 | 4.3 | 0.00 | 0.00 | 0.00 | 43 | 1011.5 |
| 20260905202006 | 98 | 285 | 0.9 | 2.6 | 0.00 | 0.00 | 0.00 | 45 | 1011.5 |
| 20260905201505 | 98 | 153 | 0.9 | 2.6 | 0.00 | 0.00 | 0.00 | 44 | 1011.5 |
| 20260905200506 | 98 | 139 | 0.9 | 2.6 | 0.00 | 0.00 | 0.00 | 45 | 1011.5 |
| 20260905200005 | 98 | 332 | 1.7 | 4.3 | 0.00 | 0.00 | 0.00 | 45 | 1011.8 |
| 20260905195505 | 98 | 109 | 1.7 | 2.6 | 0.00 | 0.00 | 0.00 | 46 | 1011.8 |
| 20260905195006 | 97 | 300 | 0.9 | 1.7 | 0.00 | 0.00 | 0.00 | 46 | 1011.9 |
| 20260905194504 | 97 | 22 | 0.9 | 1.7 | 0.00 | 0.00 | 0.00 | 47 | 1011.9 |
| 20260905194005 | 97 | 16 | 0.0 | 2.6 | 0.00 | 0.00 | 0.00 | 49 | 1011.9 |
| 20260905193505 | 96 | 4 | 1.7 | 2.6 | 0.00 | 0.00 | 0.00 | 48 | 1011.9 |
| 20260905193006 | 97 | 7 | 1.7 | 2.6 | 0.00 | 0.00 | 0.00 | 47 | 1012.1 |
| 20260905192006 | 97 | 38 | 0.9 | 1.7 | 0.00 | 0.00 | 0.00 | 48 | 1012.1 |
| 20260905191506 | 96 | 342 | 0.9 | 2.6 | 0.00 | 0.00 | 0.00 | 47 | 1012.1 |
| 20260905191005 | 96 | 345 | 0.9 | 2.6 | 0.00 | 0.00 | 0.00 | 47 | 1012.3 |
| 20260905190504 | 97 | 98 | 0.9 | 2.6 | 0.00 | 0.00 | 0.00 | 46 | 1012.3 |
| 20260905190005 | 98 | 325 | 1.7 | 4.3 | 0.00 | 0.00 | 0.00 | 47 | 1012.6 |
| 20260905185505 | 98 | 20 | 0.9 | 2.6 | 0.00 | 0.00 | 0.00 | 46 | 1012.6 |
| 20260905185005 | 97 | 28 | 0.9 | 2.6 | 0.00 | 0.00 | 0.00 | 49 | 1012.6 |
| 20260905184505 | 97 | 123 | 0.9 | 2.6 | 0.00 | 0.00 | 0.00 | 48 | 1012.6 |
| 20260905183506 | 95 | 15 | 1.7 | 4.3 | 0.00 | 0.00 | 0.00 | 52 | 1012.8 |
| 20260905183005 | 95 | 23 | 0.9 | 1.7 | 0.00 | 0.00 | 0.00 | 51 | 1013.1 |
| 20260905182505 | 95 | 289 | 0.9 | 1.7 | 0.00 | 0.00 | 0.00 | 49 | 1013.1 |
| 20260905182005 | 96 | 5 | 1.7 | 4.3 | 0.00 | 0.00 | 0.00 | 49 | 1013.1 |
| 20260905181506 | 96 | 17 | 1.7 | 4.3 | 0.00 | 0.00 | 0.00 | 50 | 1013.0 |
| 20260905180506 | 95 | 18 | 1.7 | 2.6 | 0.00 | 0.00 | 0.00 | 51 | 1013.1 |
| 20260905180005 | 95 | 4 | 0.9 | 2.6 | 0.00 | 0.00 | 0.00 | 51 | 1013.2 |
| 20260905175505 | 95 | 15 | 0.9 | 4.3 | 0.00 | 0.00 | 0.00 | 52 | 1013.2 |
| 20260905175005 | 96 | 14 | 0.9 | 4.3 | 0.00 | 0.00 | 0.00 | 53 | 1013.2 |
| 20260905174505 | 95 | 295 | 0.9 | 1.7 | 0.00 | 0.00 | 0.00 | 53 | 1013.3 |
| 20260905173505 | 94 | 345 | 0.9 | 4.3 | 0.00 | 0.00 | 0.00 | 53 | 1013.6 |
| 20260905173006 | 95 | 356 | 0.9 | 2.6 | 0.00 | 0.00 | 0.00 | 51 | 1013.6 |
| 20260905172505 | 95 | 41 | 0.9 | 4.3 | 0.00 | 0.00 | 0.00 | 52 | 1013.6 |
| 20260905171506 | 95 | 124 | 0.9 | 2.6 | 0.00 | 0.00 | 0.00 | 54 | 1013.6 |
| 20260905171005 | 94 | 74 | 0.9 | 2.6 | 0.00 | 0.00 | 0.00 | 55 | 1013.7 |
| 20260905170505 | 94 | 5 | 1.7 | 2.6 | 0.00 | 0.00 | 0.00 | 54 | 1013.7 |
| 20260905170004 | 94 | 348 | 1.7 | 2.6 | 0.00 | 0.00 | 0.00 | 52 | 1013.7 |
| 20260905165505 | 94 | 7 | 1.7 | 2.6 | 0.00 | 0.00 | 0.00 | 52 | 1013.7 |
| 20260905165005 | 94 | 11 | 0.9 | 1.7 | 0.00 | 0.00 | 0.00 | 53 | 1014.2 |
| 20260905164504 | 94 | 30 | 0.9 | 2.6 | 0.00 | 0.00 | 0.00 | 53 | 1014.2 |
| 20260905164004 | 93 | 14 | 1.7 | 4.3 | 0.00 | 0.00 | 0.00 | 54 | 1014.2 |
| 20260905163505 | 93 | 5 | 1.7 | 4.3 | 0.00 | 0.00 | 0.00 | 54 | 1014.2 |
| 20260905163006 | 93 | 51 | 1.7 | 4.3 | 0.00 | 0.00 | 0.00 | 54 | 1014.2 |
| 20260905162505 | 94 | 11 | 0.9 | 2.6 | 0.00 | 0.00 | 0.00 | 54 | 1014.2 |
| 20260905161504 | 93 | 7 | 1.7 | 6.1 | 0.00 | 0.00 | 0.00 | 55 | 1014.2 |
| 20260905161006 | 93 | 344 | 0.9 | 4.3 | 0.00 | 0.00 | 0.00 | 56 | 1014.3 |
| 20260905160505 | 92 | 19 | 0.9 | 4.3 | 0.00 | 0.00 | 0.00 | 59 | 1014.3 |
| 20260905160005 | 92 | 342 | 2.6 | 4.3 | 0.00 | 0.00 | 0.00 | 57 | 1014.5 |
| 20260905155506 | 92 | 350 | 0.9 | 2.6 | 0.00 | 0.00 | 0.00 | 57 | 1014.5 |
| 20260905155005 | 92 | 356 | 1.7 | 2.6 | 0.00 | 0.00 | 0.00 | 58 | 1014.5 |
| 20260905154505 | 92 | 5 | 0.9 | 2.6 | 0.00 | 0.00 | 0.00 | 57 | 1014.5 |
| 20260905154005 | 92 | 280 | 1.7 | 2.6 | 0.00 | 0.00 | 0.00 | 59 | 1014.6 |
| 20260905153005 | 91 | 348 | 1.7 | 5.2 | 0.00 | 0.00 | 0.00 | 60 | 1014.5 |
| 20260905152505 | 91 | 10 | 0.9 | 2.6 | 0.00 | 0.00 | 0.00 | 62 | 1014.5 |
| 20260905152006 | 90 | 344 | 1.7 | 2.6 | 0.00 | 0.00 | 0.00 | 63 | 1014.5 |
| 20260905151505 | 90 | 356 | 1.7 | 2.6 | 0.00 | 0.00 | 0.00 | 61 | 1014.5 |
| 20260905150505 | 90 | 353 | 0.9 | 2.6 | 0.00 | 0.00 | 0.00 | 62 | 1014.5 |
| 20260905150005 | 90 | 28 | 1.7 | 2.6 | 0.00 | 0.00 | 0.00 | 62 | 1014.7 |
| 20260905145005 | 89 | 289 | 0.9 | 4.3 | 0.00 | 0.00 | 0.00 | 62 | 1014.7 |
| 20260905144506 | 90 | 279 | 1.7 | 4.3 | 0.00 | 0.00 | 0.00 | 61 | 1014.7 |
| 20260905144006 | 90 | 250 | 0.9 | 2.6 | 0.00 | 0.00 | 0.00 | 64 | 1014.7 |
| 20260905143505 | 88 | 254 | 0.9 | 2.6 | 0.00 | 0.00 | 0.00 | 67 | 1014.7 |
| 20260905142005 | 87 | 227 | 0.9 | 2.6 | 0.00 | 0.00 | 0.00 | 68 | 1014.7 |
| 20260905141505 | 87 | 237 | 0.9 | 1.7 | 0.00 | 0.00 | 0.00 | 69 | 1014.7 |
| 20260905141005 | 87 | 259 | 0.0 | 1.7 | 0.00 | 0.00 | 0.00 | 71 | 1014.7 |
| 20260905140505 | 86 | 253 | 0.0 | 1.7 | 0.00 | 0.00 | 0.00 | 71 | 1014.7 |
| 20260905135505 | 84 | 237 | 0.9 | 2.6 | 0.00 | 0.00 | 0.00 | 73 | 1014.7 |
| 20260905135005 | 83 | 252 | 1.7 | 4.3 | 0.00 | 0.00 | 0.00 | 76 | 1014.7 |
| 20260905134505 | 81 | 260 | 1.7 | 2.6 | 0.00 | 0.00 | 0.00 | 81 | 1014.7 |
| 20260905134005 | 79 | 293 | 0.0 | 2.6 | 0.00 | 0.00 | 0.00 | 88 | 1014.9 |
| 20260905133505 | 77 | 284 | 0.9 | 2.6 | 0.00 | 0.00 | 0.00 | 89 | 1014.9 |
| 20260905133005 | 76 | 248 | 0.9 | 1.7 | 0.00 | 0.00 | 0.00 | 89 | 1014.9 |
| 20260905132505 | 75 | 289 | 0.0 | 2.6 | 0.00 | 0.00 | 0.00 | 89 | 1014.9 |
| 20260905132005 | 75 | 250 | 0.9 | 1.7 | 0.00 | 0.00 | 0.00 | 89 | 1015.0 |
| 20260905131504 | 74 | 250 | 0.9 | 1.7 | 0.00 | 0.00 | 0.00 | 89 | 1015.1 |
| 20260905131005 | 74 | 250 | 0.9 | 2.6 | 0.00 | 0.00 | 0.00 | 89 | 1015.2 |
| 20260905130505 | 74 | 245 | 0.0 | 0.9 | 0.00 | 0.00 | 0.00 | 89 | 1015.2 |
| 20260905130005 | 74 | 245 | 0.9 | 2.6 | 0.00 | 0.00 | 0.00 | 89 | 1015.2 |
| 20260905125505 | 73 | 293 | 1.7 | 2.6 | 0.00 | 0.00 | 0.00 | 89 | 1015.2 |
| 20260905125005 | 73 | 214 | 0.9 | 1.7 | 0.00 | 0.00 | 0.00 | 89 | 1015.1 |
| 20260905124505 | 73 | 214 | 0.9 | 2.6 | 0.00 | 0.00 | 0.00 | 89 | 1015.1 |
| 20260905123505 | 72 | 214 | 0.9 | 1.7 | 0.00 | 0.00 | 0.00 | 89 | 1015.2 |
| 20260905123005 | 72 | 214 | 0.0 | 0.9 | 0.00 | 0.00 | 0.00 | 90 | 1014.8 |
| 20260905122504 | 72 | 214 | 0.0 | 0.0 | 0.00 | 0.00 | 0.00 | 89 | 1014.8 |
| 20260905122005 | 71 | 214 | 0.0 | 0.0 | 0.00 | 0.00 | 0.00 | 90 | 1014.8 |
| 20260905121505 | 71 | 214 | 0.0 | 0.0 | 0.00 | 0.00 | 0.00 | 90 | 1014.8 |
| 20260905121005 | 71 | 214 | 0.0 | 0.0 | 0.00 | 0.00 | 0.00 | 90 | 1014.7 |
| 20260905120505 | 71 | 214 | 0.0 | 0.0 | 0.00 | 0.00 | 0.00 | 90 | 1014.7 |
| 20260905120005 | 71 | 214 | 0.0 | 0.0 | 0.00 | 0.00 | 0.00 | 90 | 1014.7 |
| 20260905115505 | 71 | 214 | 0.0 | 0.0 | 0.00 | 0.00 | 0.00 | 90 | 1014.7 |
| 20260905115006 | 71 | 214 | 0.0 | 0.0 | 0.00 | 0.00 | 0.00 | 90 | 1014.6 |
| 20260905114005 | 71 | 214 | 0.0 | 0.0 | 0.00 | 0.00 | 0.00 | 90 | 1014.4 |
| 20260905113006 | 71 | 214 | 0.0 | 0.9 | 0.00 | 0.00 | 0.00 | 90 | 1014.4 |
| 20260905112005 | 71 | 214 | 0.0 | 0.9 | 0.00 | 0.00 | 0.00 | 90 | 1014.2 |
| 20260905111505 | 71 | 214 | 0.0 | 0.9 | 0.00 | 0.00 | 0.00 | 90 | 1014.2 |
| 20260905111006 | 71 | 214 | 0.0 | 0.0 | 0.00 | 0.00 | 0.00 | 90 | 1014.2 |
| 20260905110505 | 71 | 214 | 0.0 | 0.9 | 0.00 | 0.00 | 0.00 | 90 | 1014.2 |
| 20260905110005 | 71 | 214 | 0.0 | 0.0 | 0.00 | 0.00 | 0.00 | 90 | 1014.1 |
| 20260905105505 | 71 | 214 | 0.0 | 0.0 | 0.00 | 0.00 | 0.00 | 90 | 1014.1 |
| 20260905105005 | 71 | 214 | 0.0 | 0.0 | 0.00 | 0.00 | 0.00 | 90 | 1014.1 |
| 20260905104505 | 71 | 214 | 0.0 | 0.0 | 0.00 | 0.00 | 0.00 | 90 | 1014.1 |
| 20260905104005 | 71 | 214 | 0.0 | 0.0 | 0.00 | 0.00 | 0.00 | 90 | 1014.1 |
| 20260905103505 | 71 | 214 | 0.0 | 0.0 | 0.00 | 0.00 | 0.00 | 90 | 1014.1 |
| 20260905103006 | 71 | 214 | 0.0 | 0.0 | 0.00 | 0.00 | 0.00 | 90 | 1014.1 |
| 20260905102505 | 71 | 214 | 0.0 | 0.0 | 0.00 | 0.00 | 0.00 | 90 | 1014.1 |
| 20260905102006 | 72 | 214 | 0.0 | 0.9 | 0.00 | 0.00 | 0.00 | 90 | 1014.0 |
| 20260905101506 | 72 | 214 | 0.0 | 0.9 | 0.00 | 0.00 | 0.00 | 90 | 1014.0 |
| 20260905101005 | 72 | 214 | 0.0 | 0.9 | 0.00 | 0.00 | 0.00 | 90 | 1013.9 |
| 20260905100505 | 72 | 214 | 0.0 | 0.0 | 0.00 | 0.00 | 0.00 | 90 | 1013.9 |
| 20260905100005 | 72 | 214 | 0.0 | 0.0 | 0.00 | 0.00 | 0.00 | 90 | 1014.0 |
| 20260905095504 | 72 | 214 | 0.0 | 0.0 | 0.00 | 0.00 | 0.00 | 90 | 1014.0 |
| 20260905095005 | 72 | 214 | 0.0 | 0.0 | 0.00 | 0.00 | 0.00 | 90 | 1014.0 |
| 20260905094506 | 72 | 214 | 0.0 | 0.0 | 0.00 | 0.00 | 0.00 | 90 | 1014.0 |
| 20260905094005 | 72 | 214 | 0.0 | 0.0 | 0.00 | 0.00 | 0.00 | 90 | 1013.7 |
| 20260905092505 | 72 | 214 | 0.0 | 0.0 | 0.00 | 0.00 | 0.00 | 90 | 1013.7 |
| 20260905092005 | 72 | 214 | 0.0 | 0.0 | 0.00 | 0.00 | 0.00 | 90 | 1013.7 |
| 20260905091505 | 72 | 214 | 0.0 | 0.0 | 0.00 | 0.00 | 0.00 | 90 | 1013.7 |
| 20260905091004 | 72 | 214 | 0.0 | 0.0 | 0.00 | 0.00 | 0.00 | 90 | 1013.6 |
| 20260905090006 | 72 | 214 | 0.0 | 0.9 | 0.00 | 0.00 | 0.00 | 89 | 1013.7 |
| 20260905085505 | 72 | 214 | 0.0 | 0.9 | 0.00 | 0.00 | 0.00 | 89 | 1013.7 |
| 20260905085005 | 73 | 214 | 0.0 | 0.9 | 0.00 | 0.00 | 0.00 | 89 | 1013.7 |
| 20260905084505 | 73 | 214 | 0.0 | 0.9 | 0.00 | 0.00 | 0.00 | 89 | 1013.7 |
| 20260905084005 | 73 | 214 | 0.0 | 0.9 | 0.00 | 0.00 | 0.00 | 90 | 1013.7 |
| 20260905083506 | 73 | 214 | 0.0 | 0.0 | 0.00 | 0.00 | 0.00 | 90 | 1013.7 |
| 20260905083006 | 73 | 214 | 0.0 | 0.0 | 0.00 | 0.00 | 0.00 | 90 | 1013.7 |
| 20260905082505 | 73 | 214 | 0.0 | 0.0 | 0.00 | 0.00 | 0.00 | 90 | 1013.7 |
| 20260905082005 | 73 | 214 | 0.0 | 0.0 | 0.00 | 0.00 | 0.00 | 89 | 1013.7 |
| 20260905081505 | 73 | 214 | 0.0 | 0.0 | 0.00 | 0.00 | 0.00 | 89 | 1013.7 |
| 20260905080505 | 73 | 214 | 0.0 | 0.0 | 0.00 | 0.00 | 0.00 | 89 | 1013.7 |
| 20260905075505 | 73 | 214 | 0.0 | 0.0 | 0.00 | 0.00 | 0.00 | 89 | 1013.6 |
| 20260905075005 | 73 | 214 | 0.0 | 0.0 | 0.00 | 0.00 | 0.00 | 89 | 1013.6 |
| 20260905074505 | 74 | 214 | 0.0 | 0.0 | 0.00 | 0.00 | 0.00 | 89 | 1013.6 |
| 20260905073505 | 74 | 214 | 0.0 | 0.0 | 0.00 | 0.00 | 0.00 | 89 | 1013.6 |
| 20260905073005 | 74 | 214 | 0.0 | 0.0 | 0.00 | 0.00 | 0.00 | 89 | 1013.4 |
| 20260905072505 | 74 | 214 | 0.0 | 0.0 | 0.00 | 0.00 | 0.00 | 89 | 1013.4 |
| 20260905071505 | 74 | 214 | 0.0 | 0.9 | 0.00 | 0.00 | 0.00 | 89 | 1013.4 |
| 20260905071005 | 74 | 214 | 0.0 | 0.9 | 0.00 | 0.00 | 0.00 | 89 | 1013.2 |
| 20260905070505 | 74 | 214 | 0.0 | 0.0 | 0.00 | 0.00 | 0.00 | 89 | 1013.2 |
| 20260905065505 | 74 | 214 | 0.0 | 0.0 | 0.00 | 0.00 | 0.00 | 89 | 1013.2 |
| 20260905065005 | 74 | 214 | 0.0 | 0.9 | 0.00 | 0.00 | 0.00 | 89 | 1013.2 |
| 20260905064505 | 74 | 214 | 0.0 | 1.7 | 0.00 | 0.00 | 0.00 | 89 | 1013.3 |
| 20260905064005 | 75 | 214 | 0.9 | 1.7 | 0.00 | 0.00 | 0.00 | 89 | 1013.6 |
| 20260905063504 | 75 | 214 | 0.0 | 1.7 | 0.00 | 0.00 | 0.00 | 89 | 1013.6 |
| 20260905063005 | 75 | 214 | 0.0 | 0.0 | 0.00 | 0.00 | 0.00 | 89 | 1013.6 |
| 20260905062504 | 75 | 214 | 0.0 | 0.0 | 0.00 | 0.00 | 0.00 | 89 | 1013.6 |
| 20260905062005 | 75 | 214 | 0.0 | 0.9 | 0.00 | 0.00 | 0.00 | 89 | 1013.6 |
| 20260905061506 | 75 | 214 | 0.0 | 0.0 | 0.00 | 0.00 | 0.00 | 89 | 1014.0 |
| 20260905061006 | 75 | 214 | 0.0 | 0.9 | 0.00 | 0.00 | 0.00 | 89 | 1014.0 |
| 20260905060506 | 75 | 214 | 0.0 | 0.9 | 0.00 | 0.00 | 0.00 | 89 | 1014.0 |
| 20260905060004 | 75 | 214 | 0.0 | 0.0 | 0.00 | 0.00 | 0.00 | 88 | 1014.1 |
| 20260905055505 | 75 | 214 | 0.0 | 0.0 | 0.00 | 0.00 | 0.00 | 88 | 1014.1 |
| 20260905055004 | 75 | 214 | 0.0 | 0.0 | 0.00 | 0.00 | 0.00 | 88 | 1014.2 |
| 20260905054505 | 76 | 214 | 0.0 | 0.0 | 0.00 | 0.00 | 0.00 | 89 | 1014.2 |
| 20260905054005 | 76 | 214 | 0.0 | 0.0 | 0.00 | 0.00 | 0.00 | 89 | 1014.2 |
| 20260905053506 | 76 | 214 | 0.0 | 0.0 | 0.00 | 0.00 | 0.00 | 88 | 1014.2 |
| 20260905053006 | 76 | 214 | 0.0 | 0.0 | 0.00 | 0.00 | 0.00 | 88 | 1014.2 |
| 20260905052504 | 76 | 214 | 0.0 | 0.0 | 0.00 | 0.00 | 0.00 | 88 | 1014.2 |
| 20260905052006 | 76 | 214 | 0.0 | 0.9 | 0.00 | 0.00 | 0.00 | 88 | 1014.1 |
| 20260905051505 | 76 | 214 | 0.0 | 0.9 | 0.00 | 0.00 | 0.00 | 88 | 1014.2 |
| 20260905051005 | 76 | 214 | 0.0 | 0.9 | 0.00 | 0.00 | 0.00 | 88 | 1014.2 |
| 20260905050504 | 76 | 214 | 0.0 | 0.9 | 0.00 | 0.00 | 0.00 | 88 | 1014.2 |
| 20260905050004 | 76 | 214 | 0.0 | 0.9 | 0.00 | 0.00 | 0.00 | 88 | 1014.6 |
| 20260905045505 | 77 | 214 | 0.0 | 0.0 | 0.00 | 0.00 | 0.00 | 88 | 1014.6 |
| 20260905045005 | 77 | 214 | 0.0 | 0.0 | 0.00 | 0.00 | 0.00 | 88 | 1014.6 |
| 20260905044505 | 77 | 214 | 0.0 | 0.0 | 0.00 | 0.00 | 0.00 | 88 | 1014.6 |
| 20260905043505 | 77 | 214 | 0.0 | 0.0 | 0.00 | 0.00 | 0.00 | 88 | 1014.6 |
| 20260905043005 | 77 | 214 | 0.0 | 0.9 | 0.00 | 0.00 | 0.00 | 87 | 1014.6 |
| 20260905042504 | 77 | 214 | 0.0 | 0.9 | 0.00 | 0.00 | 0.00 | 87 | 1014.6 |
| 20260905042005 | 78 | 214 | 0.0 | 0.0 | 0.00 | 0.00 | 0.00 | 87 | 1014.6 |
| 20260905040505 | 78 | 214 | 0.0 | 0.0 | 0.00 | 0.00 | 0.00 | 87 | 1014.6 |
| 20260905040005 | 78 | 214 | 0.0 | 0.0 | 0.00 | 0.00 | 0.00 | 87 | 1014.6 |
| 20260905035505 | 78 | 214 | 0.0 | 0.0 | 0.00 | 0.00 | 0.00 | 86 | 1014.6 |
| 20260905035005 | 78 | 214 | 0.0 | 0.0 | 0.00 | 0.00 | 0.00 | 86 | 1014.7 |
| 20260905034504 | 78 | 214 | 0.0 | 0.0 | 0.00 | 0.00 | 0.00 | 86 | 1014.7 |
| 20260905034005 | 78 | 214 | 0.0 | 0.0 | 0.00 | 0.00 | 0.00 | 86 | 1014.7 |
| 20260905033505 | 79 | 214 | 0.0 | 0.0 | 0.00 | 0.00 | 0.00 | 86 | 1014.7 |
| 20260905033005 | 79 | 214 | 0.0 | 0.0 | 0.00 | 0.00 | 0.00 | 86 | 1015.0 |
| 20260905032505 | 79 | 214 | 0.0 | 0.0 | 0.00 | 0.00 | 0.00 | 86 | 1015.0 |
| 20260905032005 | 79 | 214 | 0.0 | 0.0 | 0.00 | 0.00 | 0.00 | 86 | 1015.0 |
| 20260905031505 | 79 | 214 | 0.0 | 0.0 | 0.00 | 0.00 | 0.00 | 86 | 1015.0 |
| 20260905031005 | 79 | 214 | 0.0 | 0.0 | 0.00 | 0.00 | 0.00 | 86 | 1015.0 |
| 20260905030505 | 80 | 214 | 0.0 | 0.0 | 0.00 | 0.00 | 0.00 | 85 | 1015.0 |
| 20260905030004 | 80 | 214 | 0.0 | 0.0 | 0.00 | 0.00 | 0.00 | 85 | 1015.1 |
| 20260905025505 | 80 | 214 | 0.0 | 0.0 | 0.00 | 0.00 | 0.00 | 85 | 1015.1 |
| 20260905025006 | 80 | 214 | 0.0 | 0.0 | 0.00 | 0.00 | 0.00 | 85 | 1015.1 |
| 20260905024504 | 80 | 214 | 0.0 | 0.0 | 0.00 | 0.00 | 0.00 | 85 | 1015.1 |
| 20260905024005 | 80 | 214 | 0.0 | 0.0 | 0.00 | 0.00 | 0.00 | 85 | 1015.1 |
| 20260905023505 | 80 | 214 | 0.0 | 0.9 | 0.00 | 0.00 | 0.00 | 85 | 1015.1 |
| 20260905023005 | 81 | 214 | 0.0 | 0.0 | 0.00 | 0.00 | 0.00 | 84 | 1015.1 |
| 20260905022005 | 81 | 214 | 0.0 | 0.9 | 0.00 | 0.00 | 0.00 | 84 | 1015.1 |
| 20260905021505 | 81 | 214 | 0.0 | 0.0 | 0.00 | 0.00 | 0.00 | 84 | 1015.1 |
| 20260905021005 | 82 | 214 | 0.0 | 0.0 | 0.00 | 0.00 | 0.00 | 83 | 1015.1 |
| 20260905020505 | 82 | 214 | 0.0 | 0.0 | 0.00 | 0.00 | 0.00 | 83 | 1015.1 |
| 20260905020005 | 82 | 214 | 0.0 | 0.0 | 0.00 | 0.00 | 0.00 | 83 | 1015.1 |
| 20260905015506 | 82 | 214 | 0.0 | 1.7 | 0.00 | 0.00 | 0.00 | 82 | 1015.1 |
| 20260905015005 | 82 | 214 | 0.0 | 0.0 | 0.00 | 0.00 | 0.00 | 82 | 1014.8 |
| 20260905014505 | 83 | 214 | 0.0 | 0.0 | 0.00 | 0.00 | 0.00 | 82 | 1014.8 |
| 20260905014005 | 83 | 214 | 0.0 | 0.0 | 0.00 | 0.00 | 0.00 | 81 | 1014.8 |
| 20260905013505 | 83 | 214 | 0.0 | 0.0 | 0.00 | 0.00 | 0.00 | 81 | 1014.8 |
| 20260905013006 | 83 | 214 | 0.0 | 0.0 | 0.00 | 0.00 | 0.00 | 81 | 1014.7 |
| 20260905012505 | 84 | 214 | 0.0 | 0.0 | 0.00 | 0.00 | 0.00 | 80 | 1014.7 |
| 20260905012006 | 84 | 214 | 0.0 | 0.0 | 0.00 | 0.00 | 0.00 | 80 | 1014.7 |
| 20260905011506 | 84 | 214 | 0.0 | 0.9 | 0.00 | 0.00 | 0.00 | 79 | 1014.7 |
| 20260905011004 | 84 | 214 | 0.0 | 0.0 | 0.00 | 0.00 | 0.00 | 79 | 1014.7 |
| 20260905010506 | 85 | 214 | 0.0 | 0.0 | 0.00 | 0.00 | 0.00 | 78 | 1014.7 |
| 20260905010005 | 85 | 214 | 0.0 | 0.9 | 0.00 | 0.00 | 0.00 | 78 | 1014.7 |
| 20260905005505 | 85 | 214 | 0.0 | 0.0 | 0.00 | 0.00 | 0.00 | 77 | 1014.7 |
| 20260905005005 | 85 | 214 | 0.0 | 0.9 | 0.00 | 0.00 | 0.00 | 76 | 1014.7 |
| 20260905004506 | 86 | 214 | 0.9 | 1.7 | 0.00 | 0.00 | 0.00 | 76 | 1014.7 |
| 20260905004005 | 86 | 130 | 0.0 | 0.0 | 0.00 | 0.00 | 0.00 | 75 | 1014.7 |
| 20260905003506 | 87 | 130 | 0.0 | 0.0 | 0.00 | 0.00 | 0.00 | 74 | 1014.7 |
| 20260905003005 | 87 | 130 | 0.0 | 0.0 | 0.00 | 0.00 | 0.00 | 73 | 1014.6 |
| 20260905002505 | 87 | 130 | 0.0 | 0.0 | 0.00 | 0.00 | 0.00 | 72 | 1014.6 |
| 20260905002006 | 88 | 130 | 0.0 | 0.0 | 0.00 | 0.00 | 0.00 | 72 | 1014.5 |
| 20260905001505 | 88 | 130 | 0.0 | 0.9 | 0.00 | 0.00 | 0.00 | 72 | 1014.5 |
| 20260905001005 | 89 | 130 | 0.0 | 0.0 | 0.00 | 0.00 | 0.00 | 72 | 1014.2 |
| 20260905000505 | 89 | 130 | 0.0 | 0.0 | 0.00 | 0.00 | 0.00 | 71 | 1014.2 |
| 20260905000005 | 90 | 130 | 0.0 | 0.9 | 0.00 | 0.00 | 0.00 | 70 | 1014.2 |
| 20260904235505 | 90 | 131 | 0.0 | 0.0 | 0.00 | 0.00 | 0.00 | 69 | 1014.2 |
| 20260904234505 | 91 | 131 | 0.0 | 0.0 | 0.00 | 0.00 | 0.00 | 68 | 1014.2 |
| 20260904234005 | 91 | 131 | 0.0 | 0.0 | 0.00 | 0.00 | 0.00 | 67 | 1014.2 |
| 20260904233505 | 91 | 131 | 0.0 | 0.0 | 0.00 | 0.00 | 0.00 | 66 | 1014.2 |
| 20260904233005 | 92 | 131 | 0.0 | 0.0 | 0.00 | 0.00 | 0.00 | 65 | 1014.2 |
| 20260904232506 | 92 | 131 | 0.0 | 0.0 | 0.00 | 0.00 | 0.00 | 63 | 1014.2 |
| 20260904232005 | 92 | 131 | 0.0 | 0.0 | 0.00 | 0.00 | 0.00 | 62 | 1014.2 |
| 20260904231005 | 92 | 131 | 0.0 | 0.9 | 0.00 | 0.00 | 0.00 | 60 | 1014.1 |